Year,Month,Day,Hour,Minute,Value (Times are PST for temperature in C)
2011,10,18,00,00,7.30
2011,10,18,00,01,7.30
2011,10,18,00,02,7.20
2011,10,18,00,03,7.20
2011,10,18,00,04,7.20
2011,10,18,00,05,7.20
2011,10,18,00,06,7.20
2011,10,18,00,07,7.20
2011,10,18,00,08,7.20
2011,10,18,00,09,7.20
2011,10,18,00,10,7.20
2011,10,18,00,11,7.20
2011,10,18,00,12,7.20
2011,10,18,00,13,7.20
2011,10,18,00,14,7.20
2011,10,18,00,15,7.20
2011,10,18,00,16,7.20
2011,10,18,00,17,7.20
2011,10,18,00,18,7.20
2011,10,18,00,19,7.20
2011,10,18,00,20,7.20
2011,10,18,00,21,7.20
2011,10,18,00,22,7.20
2011,10,18,00,23,7.20
2011,10,18,00,24,7.20
2011,10,18,00,25,7.20
2011,10,18,00,26,7.20
2011,10,18,00,27,7.30
2011,10,18,00,28,7.30
2011,10,18,00,29,7.30
2011,10,18,00,30,7.30
2011,10,18,00,31,7.20
2011,10,18,00,32,7.20
2011,10,18,00,33,7.20
2011,10,18,00,34,7.20
2011,10,18,00,35,7.20
2011,10,18,00,36,7.20
2011,10,18,00,37,7.20
2011,10,18,00,38,7.20
2011,10,18,00,39,7.10
2011,10,18,00,40,7.10
2011,10,18,00,41,7.10
2011,10,18,00,42,7.10
2011,10,18,00,43,7.10
2011,10,18,00,44,7.10
2011,10,18,00,45,7.10
2011,10,18,00,46,7.00
2011,10,18,00,47,7.00
2011,10,18,00,48,7.00
2011,10,18,00,49,7.00
2011,10,18,00,50,6.90
2011,10,18,00,51,6.90
2011,10,18,00,52,7.00
2011,10,18,00,53,7.00
2011,10,18,00,54,7.00
2011,10,18,00,55,7.00
2011,10,18,00,56,7.10
2011,10,18,00,57,7.10
2011,10,18,00,58,7.10
2011,10,18,00,59,7.10
2011,10,18,01,00,7.20
2011,10,18,01,01,7.20
2011,10,18,01,02,7.20
2011,10,18,01,03,7.20
2011,10,18,01,04,7.20
2011,10,18,01,05,7.20
2011,10,18,01,06,7.20
2011,10,18,01,07,7.20
2011,10,18,01,08,7.20
2011,10,18,01,09,7.20
2011,10,18,01,10,7.20
2011,10,18,01,11,7.20
2011,10,18,01,12,7.20
2011,10,18,01,13,7.20
2011,10,18,01,14,7.20
2011,10,18,01,15,7.20
2011,10,18,01,16,7.20
2011,10,18,01,17,7.10
2011,10,18,01,18,7.10
2011,10,18,01,19,7.10
2011,10,18,01,20,7.10
2011,10,18,01,21,7.10
2011,10,18,01,22,7.10
2011,10,18,01,23,7.10
2011,10,18,01,24,7.10
2011,10,18,01,25,7.20
2011,10,18,01,26,7.20
2011,10,18,01,27,7.20
2011,10,18,01,28,7.20
2011,10,18,01,29,7.20
2011,10,18,01,30,7.20
2011,10,18,01,31,7.20
2011,10,18,01,32,7.20
2011,10,18,01,33,7.20
2011,10,18,01,34,7.20
2011,10,18,01,35,7.20
2011,10,18,01,36,7.10
2011,10,18,01,37,7.10
2011,10,18,01,38,7.10
2011,10,18,01,39,7.10
2011,10,18,01,40,7.10
2011,10,18,01,41,7.10
2011,10,18,01,42,7.10
2011,10,18,01,43,7.10
2011,10,18,01,44,7.10
2011,10,18,01,45,7.10
2011,10,18,01,46,7.00
2011,10,18,01,47,7.00
2011,10,18,01,48,7.10
2011,10,18,01,49,7.00
2011,10,18,01,50,7.00
2011,10,18,01,51,7.00
2011,10,18,01,52,7.00
2011,10,18,01,53,7.00
2011,10,18,01,54,7.00
2011,10,18,01,55,7.10
2011,10,18,01,56,7.10
2011,10,18,01,57,7.10
2011,10,18,01,58,7.10
2011,10,18,01,59,7.10
2011,10,18,02,00,7.10
2011,10,18,02,01,7.20
2011,10,18,02,02,7.20
2011,10,18,02,03,7.20
2011,10,18,02,04,7.20
2011,10,18,02,05,7.20
2011,10,18,02,06,7.20
2011,10,18,02,07,7.20
2011,10,18,02,08,7.20
2011,10,18,02,09,7.10
2011,10,18,02,10,7.10
2011,10,18,02,11,7.10
2011,10,18,02,12,7.10
2011,10,18,02,13,7.10
2011,10,18,02,14,7.10
2011,10,18,02,15,7.10
2011,10,18,02,16,7.10
2011,10,18,02,17,7.10
2011,10,18,02,18,7.10
2011,10,18,02,19,7.10
2011,10,18,02,20,7.10
2011,10,18,02,21,7.10
2011,10,18,02,22,7.00
2011,10,18,02,23,7.10
2011,10,18,02,24,7.20
2011,10,18,02,25,7.20
2011,10,18,02,26,7.20
2011,10,18,02,27,7.20
2011,10,18,02,28,7.20
2011,10,18,02,29,7.20
2011,10,18,02,30,7.20
2011,10,18,02,31,7.20
2011,10,18,02,32,7.10
2011,10,18,02,33,7.10
2011,10,18,02,34,7.10
2011,10,18,02,35,7.20
2011,10,18,02,36,7.20
2011,10,18,02,37,7.20
2011,10,18,02,38,7.20
2011,10,18,02,39,7.20
2011,10,18,02,40,7.20
2011,10,18,02,41,7.30
2011,10,18,02,42,7.30
2011,10,18,02,43,7.30
2011,10,18,02,44,7.20
2011,10,18,02,45,7.20
2011,10,18,02,46,7.20
2011,10,18,02,47,7.20
2011,10,18,02,48,7.20
2011,10,18,02,49,7.20
2011,10,18,02,50,7.20
2011,10,18,02,51,7.20
2011,10,18,02,52,7.10
2011,10,18,02,53,7.10
2011,10,18,02,54,7.10
2011,10,18,02,55,7.10
2011,10,18,02,56,7.10
2011,10,18,02,57,7.00
2011,10,18,02,58,7.00
2011,10,18,02,59,7.00
2011,10,18,03,00,7.00
2011,10,18,03,01,7.00
2011,10,18,03,02,7.00
2011,10,18,03,03,6.90
2011,10,18,03,04,6.90
2011,10,18,03,05,6.90
2011,10,18,03,06,6.80
2011,10,18,03,07,6.80
2011,10,18,03,08,6.80
2011,10,18,03,09,6.80
2011,10,18,03,10,6.80
2011,10,18,03,11,6.80
2011,10,18,03,12,6.80
2011,10,18,03,13,6.80
2011,10,18,03,14,6.80
2011,10,18,03,15,6.80
2011,10,18,03,16,6.70
2011,10,18,03,17,6.70
2011,10,18,03,18,6.70
2011,10,18,03,19,6.70
2011,10,18,03,20,6.70
2011,10,18,03,21,6.70
2011,10,18,03,22,6.70
2011,10,18,03,23,6.70
2011,10,18,03,24,6.60
2011,10,18,03,25,6.60
2011,10,18,03,26,6.60
2011,10,18,03,27,6.60
2011,10,18,03,28,6.60
2011,10,18,03,29,6.60
2011,10,18,03,30,6.60
2011,10,18,03,34,6.60
2011,10,18,03,35,6.60
2011,10,18,03,36,6.60
2011,10,18,03,37,6.60
2011,10,18,03,38,6.60
2011,10,18,03,39,6.60
2011,10,18,03,40,6.60
2011,10,18,03,41,6.60
2011,10,18,03,42,6.60
2011,10,18,03,43,6.60
2011,10,18,03,44,6.60
2011,10,18,03,45,6.60
2011,10,18,03,46,6.60
2011,10,18,03,47,6.60
2011,10,18,03,48,6.60
2011,10,18,03,49,6.60
2011,10,18,03,50,6.70
2011,10,18,03,51,6.70
2011,10,18,03,52,6.70
2011,10,18,03,53,6.70
2011,10,18,03,54,6.70
2011,10,18,03,55,6.70
2011,10,18,03,56,6.70
2011,10,18,03,57,6.70
2011,10,18,03,58,6.60
2011,10,18,03,59,6.60
2011,10,18,04,00,6.60
2011,10,18,04,01,6.60
2011,10,18,04,02,6.60
2011,10,18,04,03,6.50
2011,10,18,04,04,6.50
2011,10,18,04,05,6.50
2011,10,18,04,06,6.50
2011,10,18,04,07,6.40
2011,10,18,04,08,6.40
2011,10,18,04,09,6.40
2011,10,18,04,10,6.40
2011,10,18,04,11,6.40
2011,10,18,04,12,6.40
2011,10,18,04,13,6.40
2011,10,18,04,14,6.40
2011,10,18,04,15,6.40
2011,10,18,04,16,6.40
2011,10,18,04,17,6.40
2011,10,18,04,18,6.40
2011,10,18,04,19,6.30
2011,10,18,04,20,6.30
2011,10,18,04,21,6.30
2011,10,18,04,22,6.30
2011,10,18,04,23,6.30
2011,10,18,04,24,6.30
2011,10,18,04,25,6.30
2011,10,18,04,26,6.20
2011,10,18,04,27,6.20
2011,10,18,04,28,6.20
2011,10,18,04,29,6.20
2011,10,18,04,30,6.20
2011,10,18,04,31,6.10
2011,10,18,04,32,6.10
2011,10,18,04,33,6.10
2011,10,18,04,34,6.10
2011,10,18,04,35,6.10
2011,10,18,04,36,6.10
2011,10,18,04,37,6.10
2011,10,18,04,38,6.10
2011,10,18,04,39,6.10
2011,10,18,04,40,6.10
2011,10,18,04,41,6.10
2011,10,18,04,42,6.10
2011,10,18,10,20,13.40
2011,10,18,10,21,13.40
2011,10,18,10,22,13.40
2011,10,18,10,23,13.40
2011,10,18,10,24,13.30
2011,10,18,10,25,13.30
2011,10,18,10,26,13.30
2011,10,18,10,27,13.20
2011,10,18,10,28,13.20
2011,10,18,10,29,13.20
2011,10,18,10,30,13.20
2011,10,18,10,31,13.10
2011,10,18,10,32,13.00
2011,10,18,10,33,13.00
2011,10,18,10,34,13.00
2011,10,18,10,35,13.00
2011,10,18,10,36,13.00
2011,10,18,10,37,13.00
2011,10,18,10,38,12.90
2011,10,18,10,39,12.90
2011,10,18,10,40,12.90
2011,10,18,10,41,12.80
2011,10,18,10,42,12.80
2011,10,18,10,43,12.80
2011,10,18,10,44,12.80
2011,10,18,10,45,12.70
2011,10,18,10,46,12.70
2011,10,18,10,47,12.70
2011,10,18,10,48,12.70
2011,10,18,10,49,12.70
2011,10,18,10,50,12.80
2011,10,18,10,51,12.80
2011,10,18,10,52,12.90
2011,10,18,10,53,12.90
2011,10,18,10,54,12.90
2011,10,18,10,55,12.90
2011,10,18,10,56,12.90
2011,10,18,10,57,12.90
2011,10,18,10,58,13.00
2011,10,18,10,59,13.00
2011,10,18,11,00,13.00
2011,10,18,11,01,13.10
2011,10,18,11,02,13.10
2011,10,18,11,03,13.10
2011,10,18,11,04,13.10
2011,10,18,11,05,13.10
2011,10,18,11,06,13.10
2011,10,18,11,07,13.10
2011,10,18,11,08,13.10
2011,10,18,11,09,13.10
2011,10,18,11,10,13.20
2011,10,18,11,11,13.20
2011,10,18,11,12,13.30
2011,10,18,11,13,13.30
2011,10,18,11,14,13.30
2011,10,18,11,15,13.30
2011,10,18,11,16,13.30
2011,10,18,11,17,13.30
2011,10,18,11,18,13.30
2011,10,18,11,19,13.40
2011,10,18,11,20,13.40
2011,10,18,11,21,13.40
2011,10,18,11,22,13.40
2011,10,18,11,23,13.50
2011,10,18,11,24,13.50
2011,10,18,11,25,13.60
2011,10,18,11,26,13.60
2011,10,18,11,27,13.60
2011,10,18,11,28,13.60
2011,10,18,11,29,13.60
2011,10,18,11,30,13.60
2011,10,18,11,31,13.60
2011,10,18,11,32,13.60
2011,10,18,11,33,13.60
2011,10,18,11,34,13.50
2011,10,18,11,35,13.50
2011,10,18,11,36,13.50
2011,10,18,11,37,13.50
2011,10,18,11,38,13.50
2011,10,18,11,39,13.60
2011,10,18,11,40,13.60
2011,10,18,11,41,13.60
2011,10,18,11,42,13.60
2011,10,18,11,43,13.60
2011,10,18,11,44,13.60
2011,10,18,11,45,13.50
2011,10,18,11,46,13.50
2011,10,18,11,47,13.40
2011,10,18,11,48,13.30
2011,10,18,11,49,13.30
2011,10,18,11,50,13.30
2011,10,18,11,51,13.30
2011,10,18,11,52,13.30
2011,10,18,11,53,13.40
2011,10,18,11,54,13.40
2011,10,18,11,55,13.40
2011,10,18,11,56,13.30
2011,10,18,11,57,13.30
2011,10,18,11,58,13.30
2011,10,18,11,59,13.30
2011,10,18,12,00,13.30
2011,10,18,12,01,13.40
2011,10,18,12,02,13.40
2011,10,18,12,03,13.50
2011,10,18,12,04,13.50
2011,10,18,12,05,13.50
2011,10,18,12,06,13.60
2011,10,18,12,07,13.60
2011,10,18,12,08,13.70
2011,10,18,12,09,13.70
2011,10,18,12,10,13.70
2011,10,18,12,11,13.70
2011,10,18,12,12,13.70
2011,10,18,12,13,13.60
2011,10,18,12,14,13.60
2011,10,18,12,15,13.60
2011,10,18,12,16,13.60
2011,10,18,12,17,13.60
2011,10,18,12,18,13.50
2011,10,18,12,19,13.40
2011,10,18,12,20,13.40
2011,10,18,12,21,13.40
2011,10,18,12,22,13.50
2011,10,18,12,23,13.60
2011,10,18,12,24,13.70
2011,10,18,12,25,13.70
2011,10,18,12,26,13.80
2011,10,18,12,27,13.80
2011,10,18,12,28,13.90
2011,10,18,12,29,14.00
2011,10,18,12,30,14.00
2011,10,18,12,31,14.20
2011,10,18,12,32,14.30
2011,10,18,12,33,14.30
2011,10,18,12,34,14.40
2011,10,18,12,35,14.50
2011,10,18,12,36,14.70
2011,10,18,12,37,14.80
2011,10,18,12,38,14.80
2011,10,18,12,39,14.80
2011,10,18,12,40,14.80
2011,10,18,12,41,14.80
2011,10,18,12,42,14.90
2011,10,18,12,43,14.90
2011,10,18,12,44,14.80
2011,10,18,12,45,14.60
2011,10,18,12,46,14.50
2011,10,18,12,47,14.50
2011,10,18,12,48,14.50
2011,10,18,12,49,14.60
2011,10,18,12,50,14.60
2011,10,18,12,51,14.70
2011,10,18,12,52,14.70
2011,10,18,12,53,14.80
2011,10,18,12,54,14.90
2011,10,18,12,55,14.90
2011,10,18,12,56,14.90
2011,10,18,12,57,15.00
2011,10,18,12,58,15.00
2011,10,18,12,59,15.00
2011,10,18,13,00,15.00
2011,10,18,13,01,15.00
2011,10,18,13,02,15.00
2011,10,18,13,03,14.90
2011,10,18,13,04,14.90
2011,10,18,13,05,14.90
2011,10,18,13,06,15.00
2011,10,18,13,07,15.00
2011,10,18,13,08,15.00
2011,10,18,13,09,15.00
2011,10,18,13,10,15.00
2011,10,18,13,11,15.00
2011,10,18,13,12,15.00
2011,10,18,13,13,15.00
2011,10,18,13,14,15.00
2011,10,18,13,15,15.10
2011,10,18,13,16,15.20
2011,10,18,13,17,15.30
2011,10,18,13,18,15.30
2011,10,18,13,19,15.40
2011,10,18,13,20,15.30
2011,10,18,13,21,15.30
2011,10,18,13,22,15.20
2011,10,18,13,23,15.20
2011,10,18,13,24,15.20
2011,10,18,13,25,15.20
2011,10,18,13,26,15.20
2011,10,18,13,27,15.20
2011,10,18,13,28,15.20
2011,10,18,13,29,15.30
2011,10,18,13,30,15.30
2011,10,18,13,31,15.30
2011,10,18,13,32,15.30
2011,10,18,13,33,15.30
2011,10,18,13,34,15.40
2011,10,18,13,35,15.40
2011,10,18,13,36,15.50
2011,10,18,13,37,15.70
2011,10,18,13,38,15.70
2011,10,18,13,39,15.70
2011,10,18,13,40,15.70
2011,10,18,13,41,15.70
2011,10,18,13,42,15.70
2011,10,18,13,43,15.70
2011,10,18,13,44,15.80
2011,10,18,13,45,15.90
2011,10,18,13,46,15.90
2011,10,18,13,47,16.00
2011,10,18,13,48,16.00
2011,10,18,13,49,16.10
2011,10,18,13,50,16.10
2011,10,18,13,51,16.20
2011,10,18,13,52,16.20
2011,10,18,13,53,16.20
2011,10,18,13,54,16.20
2011,10,18,13,55,16.20
2011,10,18,13,56,16.20
2011,10,18,13,57,16.20
2011,10,18,13,58,16.30
2011,10,18,13,59,16.30
2011,10,18,14,00,16.30
2011,10,18,14,01,16.30
2011,10,18,14,02,16.30
2011,10,18,14,03,16.40
2011,10,18,14,04,16.40
2011,10,18,14,05,16.40
2011,10,18,14,06,16.30
2011,10,18,14,07,16.30
2011,10,18,14,08,16.30
2011,10,18,14,09,16.30
2011,10,18,14,10,16.40
2011,10,18,14,11,16.40
2011,10,18,14,12,16.40
2011,10,18,14,13,16.40
2011,10,18,14,14,16.40
2011,10,18,14,15,16.40
2011,10,18,14,16,16.40
2011,10,18,14,17,16.40
2011,10,18,14,18,16.40
2011,10,18,14,19,16.40
2011,10,18,14,20,16.50
2011,10,18,14,21,16.50
2011,10,18,14,22,16.50
2011,10,18,14,23,16.50
2011,10,18,14,24,16.60
2011,10,18,14,25,16.60
2011,10,18,14,26,16.60
2011,10,18,14,27,16.60
2011,10,18,14,28,16.60
2011,10,18,14,29,16.50
2011,10,18,14,30,16.40
2011,10,18,14,31,16.40
2011,10,18,14,32,16.50
2011,10,18,14,33,16.50
2011,10,18,14,34,16.50
2011,10,18,14,35,16.50
2011,10,18,14,36,16.40
2011,10,18,14,37,16.40
2011,10,18,14,38,16.40
2011,10,18,14,39,16.50
2011,10,18,14,40,16.60
2011,10,18,14,41,16.60
2011,10,18,14,42,16.70
2011,10,18,14,43,16.70
2011,10,18,14,44,16.70
2011,10,18,14,45,16.70
2011,10,18,14,46,16.70
2011,10,18,14,47,16.70
2011,10,18,14,48,16.70
2011,10,18,14,49,16.70
2011,10,18,14,50,16.70
2011,10,18,14,51,16.70
2011,10,18,14,52,16.70
2011,10,18,14,53,16.70
2011,10,18,14,54,16.70
2011,10,18,14,55,16.70
2011,10,18,14,56,16.70
2011,10,18,14,57,16.80
2011,10,18,14,58,16.80
2011,10,18,14,59,16.80
2011,10,18,15,00,16.80
2011,10,18,15,01,16.80
2011,10,18,15,02,16.80
2011,10,18,15,03,16.90
2011,10,18,15,04,16.90
2011,10,18,15,05,17.00
2011,10,18,15,06,17.10
2011,10,18,15,07,17.10
2011,10,18,15,08,17.10
2011,10,18,15,09,17.00
2011,10,18,15,10,17.00
2011,10,18,15,11,16.90
2011,10,18,15,12,16.90
2011,10,18,15,13,16.80
2011,10,18,15,14,16.80
2011,10,18,15,15,16.90
2011,10,18,15,16,17.00
2011,10,18,15,17,17.10
2011,10,18,15,18,17.20
2011,10,18,15,19,17.30
2011,10,18,15,20,17.30
2011,10,18,15,21,17.30
2011,10,18,15,22,17.40
2011,10,18,15,23,17.40
2011,10,18,15,24,17.50
2011,10,18,15,25,17.50
2011,10,18,15,26,17.60
2011,10,18,15,27,17.70
2011,10,18,15,28,17.70
2011,10,18,15,29,17.70
2011,10,18,15,30,17.70
2011,10,18,15,31,17.70
2011,10,18,15,32,17.70
2011,10,18,15,33,17.70
2011,10,18,15,34,17.60
2011,10,18,15,35,17.60
2011,10,18,15,36,17.50
2011,10,18,15,37,17.50
2011,10,18,15,38,17.40
2011,10,18,15,39,17.40
2011,10,18,15,40,17.40
2011,10,18,15,41,17.50
2011,10,18,15,42,17.60
2011,10,18,15,43,17.40
2011,10,18,15,44,17.30
2011,10,18,15,45,17.10
2011,10,18,15,46,17.00
2011,10,18,15,47,16.80
2011,10,18,15,48,16.80
2011,10,18,15,49,16.80
2011,10,18,15,50,16.70
2011,10,18,15,51,16.60
2011,10,18,15,52,16.50
2011,10,18,15,53,16.40
2011,10,18,15,54,16.30
2011,10,18,15,55,16.20
2011,10,18,15,56,16.20
2011,10,18,15,57,16.20
2011,10,18,15,58,16.20
2011,10,18,15,59,16.20
2011,10,18,16,00,16.20
2011,10,18,16,01,16.20
2011,10,18,16,02,16.30
2011,10,18,16,03,16.30
2011,10,18,16,04,16.40
2011,10,18,16,05,16.40
2011,10,18,16,06,16.40
2011,10,18,16,07,16.30
2011,10,18,16,08,16.30
2011,10,18,16,09,16.30
2011,10,18,16,10,16.20
2011,10,18,16,11,16.20
2011,10,18,16,12,16.20
2011,10,18,16,13,16.20
2011,10,18,16,14,16.20
2011,10,18,16,15,16.10
2011,10,18,16,16,16.10
2011,10,18,16,17,16.10
2011,10,18,16,18,16.10
2011,10,18,16,19,16.10
2011,10,18,16,20,16.10
2011,10,18,16,21,16.20
2011,10,18,16,22,16.20
2011,10,18,16,23,16.20
2011,10,18,16,24,16.20
2011,10,18,16,25,16.20
2011,10,18,16,26,16.30
2011,10,18,16,27,16.30
2011,10,18,16,28,16.30
2011,10,18,16,29,16.30
2011,10,18,16,30,16.30
2011,10,18,16,31,16.30
2011,10,18,16,32,16.30
2011,10,18,16,33,16.30
2011,10,18,16,34,16.20
2011,10,18,16,35,16.20
2011,10,18,16,36,16.20
2011,10,18,16,37,16.10
2011,10,18,16,38,16.10
2011,10,18,16,39,16.10
2011,10,18,16,40,16.00
2011,10,18,16,41,16.00
2011,10,18,16,42,16.00
2011,10,18,16,43,15.90
2011,10,18,16,44,15.90
2011,10,18,16,45,15.90
2011,10,18,16,46,15.90
2011,10,18,16,47,15.90
2011,10,18,16,48,15.90
2011,10,18,16,49,15.90
2011,10,18,16,50,15.90
2011,10,18,16,51,15.80
2011,10,18,16,52,15.80
2011,10,18,16,53,15.80
2011,10,18,16,54,15.80
2011,10,18,16,55,15.80
2011,10,18,16,56,15.80
2011,10,18,16,57,15.70
2011,10,18,16,58,15.70
2011,10,18,16,59,15.70
2011,10,18,17,00,15.70
2011,10,18,17,01,15.70
2011,10,18,17,02,15.60
2011,10,18,17,03,15.60
2011,10,18,17,04,15.60
2011,10,18,17,05,15.60
2011,10,18,17,06,15.60
2011,10,18,17,07,15.50
2011,10,18,17,08,15.50
2011,10,18,17,09,15.40
2011,10,18,17,10,15.40
2011,10,18,17,11,15.40
2011,10,18,17,12,15.30
2011,10,18,17,13,15.30
2011,10,18,17,14,15.20
2011,10,18,17,15,15.20
2011,10,18,17,16,15.10
2011,10,18,17,17,15.00
2011,10,18,17,18,15.00
2011,10,18,17,19,15.00
2011,10,18,17,20,15.00
2011,10,18,17,21,14.90
2011,10,18,17,22,14.80
2011,10,18,17,23,14.80
2011,10,18,17,24,14.70
2011,10,18,17,25,14.70
2011,10,18,17,26,14.60
2011,10,18,17,27,14.60
2011,10,18,17,28,14.50
2011,10,18,17,29,14.50
2011,10,18,17,30,14.40
2011,10,18,17,31,14.30
2011,10,18,17,32,14.30
2011,10,18,17,33,14.20
2011,10,18,17,34,14.10
2011,10,18,17,35,14.00
2011,10,18,17,36,13.90
2011,10,18,17,37,13.90
2011,10,18,17,38,13.70
2011,10,18,17,39,13.70
2011,10,18,17,40,13.60
2011,10,18,17,41,13.50
2011,10,18,17,42,13.40
2011,10,18,17,43,13.30
2011,10,18,17,44,13.20
2011,10,18,17,45,13.10
2011,10,18,17,46,13.10
2011,10,18,17,47,13.00
2011,10,18,17,48,12.90
2011,10,18,17,49,12.80
2011,10,18,17,50,12.80
2011,10,18,17,51,12.70
2011,10,18,17,52,12.70
2011,10,18,17,53,12.60
2011,10,18,17,54,12.50
2011,10,18,17,55,12.50
2011,10,18,17,56,12.40
2011,10,18,17,57,12.30
2011,10,18,17,58,12.30
2011,10,18,17,59,12.30
2011,10,18,18,00,12.20
2011,10,18,18,01,12.20
2011,10,18,18,02,12.10
2011,10,18,18,03,12.10
2011,10,18,18,04,12.00
2011,10,18,18,05,11.90
2011,10,18,18,06,11.80
2011,10,18,18,07,11.80
2011,10,18,18,08,11.70
2011,10,18,18,09,11.70
2011,10,18,18,10,11.70
2011,10,18,18,11,11.60
2011,10,18,18,12,11.60
2011,10,18,18,13,11.50
2011,10,18,18,14,11.50
2011,10,18,18,15,11.40
2011,10,18,18,16,11.40
2011,10,18,18,17,11.40
2011,10,18,18,18,11.30
2011,10,18,18,19,11.30
2011,10,18,18,20,11.30
2011,10,18,18,21,11.30
2011,10,18,18,22,11.20
2011,10,18,18,23,11.20
2011,10,18,18,24,11.10
2011,10,18,18,25,11.10
2011,10,18,18,26,11.10
2011,10,18,18,27,11.00
2011,10,18,18,28,11.00
2011,10,18,18,29,10.90
2011,10,18,18,30,10.90
2011,10,18,18,31,10.80
2011,10,18,18,32,10.80
2011,10,18,18,33,10.80
2011,10,18,18,34,10.80
2011,10,18,18,35,10.70
2011,10,18,18,36,10.70
2011,10,18,18,37,10.60
2011,10,18,18,38,10.60
2011,10,18,18,39,10.60
2011,10,18,18,40,10.50
2011,10,18,18,41,10.50
2011,10,18,18,42,10.40
2011,10,18,18,43,10.40
2011,10,18,18,44,10.30
2011,10,18,18,45,10.30
2011,10,18,18,46,10.30
2011,10,18,18,47,10.20
2011,10,18,18,48,10.20
2011,10,18,18,49,10.20
2011,10,18,18,50,10.10
2011,10,18,18,51,10.10
2011,10,18,18,52,10.10
2011,10,18,18,53,10.00
2011,10,18,18,54,10.00
2011,10,18,18,55,9.90
2011,10,18,18,56,9.90
2011,10,18,18,57,9.90
2011,10,18,18,58,9.80
2011,10,18,18,59,9.80
2011,10,18,19,00,9.80
2011,10,18,19,01,9.70
2011,10,18,19,02,9.70
2011,10,18,19,03,9.70
2011,10,18,19,04,9.70
2011,10,18,19,05,9.60
2011,10,18,19,06,9.60
2011,10,18,19,07,9.60
2011,10,18,19,08,9.60
2011,10,18,19,09,9.60
2011,10,18,19,10,9.50
2011,10,18,19,11,9.50
2011,10,18,19,12,9.40
2011,10,18,19,13,9.40
2011,10,18,19,14,9.40
2011,10,18,19,15,9.40
2011,10,18,19,16,9.40
2011,10,18,19,17,9.30
2011,10,18,19,18,9.30
2011,10,18,19,19,9.30
2011,10,18,19,20,9.30
2011,10,18,19,21,9.30
2011,10,18,19,22,9.30
2011,10,18,19,23,9.20
2011,10,18,19,24,9.20
2011,10,18,19,25,9.20
2011,10,18,19,26,9.20
2011,10,18,19,27,9.10
2011,10,18,19,28,9.10
2011,10,18,19,29,9.10
2011,10,18,19,30,9.10
2011,10,18,19,31,9.00
2011,10,18,19,32,9.00
2011,10,18,19,33,9.00
2011,10,18,19,34,9.00
2011,10,18,19,35,8.90
2011,10,18,19,36,8.90
2011,10,18,19,37,8.90
2011,10,18,19,38,8.90
2011,10,18,19,39,8.90
2011,10,18,19,40,8.90
2011,10,18,19,41,8.90
2011,10,18,19,42,8.90
2011,10,18,19,43,8.80
2011,10,18,19,44,8.80
2011,10,18,19,45,8.80
2011,10,18,19,46,8.80
2011,10,18,19,47,8.80
2011,10,18,19,48,8.80
2011,10,18,19,49,8.80
2011,10,18,19,50,8.80
2011,10,18,19,51,8.80
2011,10,18,19,52,8.80
2011,10,18,19,53,8.80
2011,10,18,19,54,8.80
2011,10,18,19,55,8.80
2011,10,18,19,56,8.80
2011,10,18,19,57,8.80
2011,10,18,19,58,8.80
2011,10,18,19,59,8.80
2011,10,18,20,00,8.80
2011,10,18,20,01,8.80
2011,10,18,20,02,8.70
2011,10,18,20,03,8.70
2011,10,18,20,04,8.70
2011,10,18,20,05,8.70
2011,10,18,20,06,8.70
2011,10,18,20,07,8.70
2011,10,18,20,08,8.70
2011,10,18,20,09,8.70
2011,10,18,20,10,8.70
2011,10,18,20,11,8.70
2011,10,18,20,12,8.70
2011,10,18,20,13,8.70
2011,10,18,20,14,8.70
2011,10,18,20,15,8.80
2011,10,18,20,16,8.80
2011,10,18,20,17,8.80
2011,10,18,20,18,8.70
2011,10,18,20,19,8.70
2011,10,18,20,20,8.70
2011,10,18,20,21,8.70
2011,10,18,20,22,8.70
2011,10,18,20,23,8.60
2011,10,18,20,24,8.60
2011,10,18,20,25,8.60
2011,10,18,20,26,8.60
2011,10,18,20,27,8.60
2011,10,18,20,28,8.60
2011,10,18,20,29,8.60
2011,10,18,20,30,8.60
2011,10,18,20,31,8.60
2011,10,18,20,32,8.60
2011,10,18,20,33,8.60
2011,10,18,20,34,8.60
2011,10,18,20,35,8.60
2011,10,18,20,36,8.60
2011,10,18,20,37,8.60
2011,10,18,20,38,8.50
2011,10,18,20,39,8.50
2011,10,18,20,40,8.50
2011,10,18,20,41,8.50
2011,10,18,20,42,8.50
2011,10,18,20,43,8.50
2011,10,18,20,44,8.50
2011,10,18,20,45,8.40
2011,10,18,20,46,8.40
2011,10,18,20,47,8.50
2011,10,18,20,48,8.40
2011,10,18,20,49,8.40
2011,10,18,20,50,8.40
2011,10,18,20,51,8.40
2011,10,18,20,52,8.40
2011,10,18,20,53,8.40
2011,10,18,20,54,8.40
2011,10,18,20,55,8.40
2011,10,18,20,56,8.40
2011,10,18,20,57,8.40
2011,10,18,20,58,8.30
2011,10,18,20,59,8.30
2011,10,18,21,00,8.30
2011,10,18,21,01,8.30
2011,10,18,21,02,8.30
2011,10,18,21,03,8.30
2011,10,18,21,04,8.30
2011,10,18,21,05,8.30
2011,10,18,21,06,8.30
2011,10,18,21,07,8.30
2011,10,18,21,08,8.30
2011,10,18,21,09,8.30
2011,10,18,21,10,8.30
2011,10,18,21,11,8.30
2011,10,18,21,12,8.30
2011,10,18,21,13,8.30
2011,10,18,21,14,8.30
2011,10,18,21,15,8.20
2011,10,18,21,16,8.20
2011,10,18,21,17,8.20
2011,10,18,21,18,8.20
2011,10,18,21,19,8.20
2011,10,18,21,20,8.20
2011,10,18,21,21,8.20
2011,10,18,21,22,8.20
2011,10,18,21,23,8.20
2011,10,18,21,24,8.20
2011,10,18,21,25,8.20
2011,10,18,21,26,8.20
2011,10,18,21,27,8.20
2011,10,18,21,28,8.20
2011,10,18,21,29,8.20
2011,10,18,21,30,8.30
2011,10,18,21,31,8.30
2011,10,18,21,32,8.30
2011,10,18,21,33,8.30
2011,10,18,21,34,8.30
2011,10,18,21,35,8.30
2011,10,18,21,36,8.30
2011,10,18,21,37,8.30
2011,10,18,21,38,8.30
2011,10,18,21,39,8.20
2011,10,18,21,40,8.20
2011,10,18,21,41,8.20
2011,10,18,21,42,8.20
2011,10,18,21,43,8.20
2011,10,18,21,44,8.20
2011,10,18,21,45,8.20
2011,10,18,21,46,8.20
2011,10,18,21,47,8.20
2011,10,18,21,48,8.20
2011,10,18,21,49,8.20
2011,10,18,21,50,8.20
2011,10,18,21,51,8.20
2011,10,18,21,52,8.20
2011,10,18,21,53,8.20
2011,10,18,21,54,8.20
2011,10,18,21,55,8.20
2011,10,18,21,56,8.20
2011,10,18,21,57,8.20
2011,10,18,21,58,8.20
2011,10,18,21,59,8.20
2011,10,18,22,00,8.20
2011,10,18,22,01,8.20
2011,10,18,22,02,8.20
2011,10,18,22,03,8.20
2011,10,18,22,04,8.20
2011,10,18,22,05,8.20
2011,10,18,22,06,8.20
2011,10,18,22,07,8.20
2011,10,18,22,08,8.20
2011,10,18,22,09,8.20
2011,10,18,22,10,8.20
2011,10,18,22,11,8.20
2011,10,18,22,12,8.20
2011,10,18,22,13,8.20
2011,10,18,22,14,8.20
2011,10,18,22,15,8.20
2011,10,18,22,16,8.20
2011,10,18,22,17,8.20
2011,10,18,22,18,8.20
2011,10,18,22,19,8.20
2011,10,18,22,20,8.20
2011,10,18,22,21,8.20
2011,10,18,22,22,8.20
2011,10,18,22,23,8.20
2011,10,18,22,24,8.20
2011,10,18,22,25,8.20
2011,10,18,22,26,8.20
2011,10,18,22,27,8.20
2011,10,18,22,28,8.20
2011,10,18,22,29,8.10
2011,10,18,22,30,8.10
2011,10,18,22,31,8.10
2011,10,18,22,32,8.10
2011,10,18,22,33,8.10
2011,10,18,22,34,8.10
2011,10,18,22,35,8.10
2011,10,18,22,36,8.10
2011,10,18,22,37,8.10
2011,10,18,22,38,8.10
2011,10,18,22,39,8.10
2011,10,18,22,40,8.10
2011,10,18,22,41,8.10
2011,10,18,22,42,8.10
2011,10,18,22,43,8.10
2011,10,18,22,44,8.10
2011,10,18,22,45,8.20
2011,10,18,22,46,8.20
2011,10,18,22,47,8.10
2011,10,18,22,48,8.20
2011,10,18,22,49,8.20
2011,10,18,22,50,8.10
2011,10,18,22,51,8.10
2011,10,18,22,52,8.10
2011,10,18,22,53,8.10
2011,10,18,22,54,8.10
2011,10,18,22,55,8.10
2011,10,18,22,56,8.10
2011,10,18,22,57,8.10
2011,10,18,22,58,8.10
2011,10,18,22,59,8.10
2011,10,18,23,00,8.10
2011,10,18,23,01,8.10
2011,10,18,23,02,8.10
2011,10,18,23,03,8.10
2011,10,18,23,04,8.10
2011,10,18,23,05,8.10
2011,10,18,23,06,8.10
2011,10,18,23,07,8.10
2011,10,18,23,08,8.10
2011,10,18,23,09,8.10
2011,10,18,23,10,8.10
2011,10,18,23,11,8.10
2011,10,18,23,12,8.10
2011,10,18,23,13,8.10
2011,10,18,23,14,8.10
2011,10,18,23,15,8.10
2011,10,18,23,16,8.10
2011,10,18,23,17,8.10
2011,10,18,23,18,8.10
2011,10,18,23,19,8.10
2011,10,18,23,20,8.10
2011,10,18,23,21,8.10
2011,10,18,23,22,8.00
2011,10,18,23,23,8.00